{"data":{"norad_id":55637,"epoch":"2026-05-25T00:42:52.230816Z","epoch_age_seconds":75709,"freshness":"FRESH","line1":"1 55637U 23021K   26145.02977119  .00000473  00000+0  47420-4 0  9992","line2":"2 55637  69.9997 352.0878 0003041 265.0578  95.0234 14.98340924180221","mean_motion":14.98340924,"eccentricity":0.0003041,"inclination_deg":69.9997,"raan_deg":352.0878,"arg_perigee_deg":265.0578,"mean_anomaly_deg":95.0234,"bstar":4.742e-5,"rev_number":18022,"period_min":96.106298435455,"perigee_km":569.90856619556,"apogee_km":574.13565296601,"semimajor_km":6950.1591095808,"source":"CELESTRAK","updated_at":"2026-05-25T13:38:17.848595Z"}}